When you browse on this site, cookies collect data to enhance your experience and personalize the content and advertising you see.
Visit our Privacy Policy to learn more. By continuing to use the site, you agree to this use of cookies and data.
  • In Belgium
  • List of Countries
  • For 7 days
  • Water Temperature
  • Satellite Maps
  • Weather Map
  • Weather Widgets
  • user-avatar
    Login

    Hourly Weather Pritykino

    Today, 23 January, Wednesday

    Time Temperature Precipitation Wind Pressure Humidity
    00:00 -20°C° 0 mm 2 mps 753 mmHg 97%
    01:00 -21°C° 0 mm 2 mps 753 mmHg 98%
    02:00 -23°C° 0 mm 2 mps 753 mmHg 99%
    03:00 -23°C° 0 mm 2 mps 753 mmHg 98%
    04:00 -23°C° 0 mm 2 mps 754 mmHg 98%
    05:00 -24°C° 0 mm 2 mps 754 mmHg 98%
    06:00 -24°C° 0 mm 2 mps 754 mmHg 97%
    07:00 -24°C° 0 mm 2 mps 754 mmHg 97%
    08:00 -24°C° 0 mm 2 mps 754 mmHg 96%
    09:00 -23°C° 0 mm 2 mps 754 mmHg 94%
    10:00 -20°C° 0 mm 2 mps 754 mmHg 91%
    11:00 -18°C° 0 mm 2 mps 755 mmHg 89%
    12:00 -18°C° 0 mm 2 mps 754 mmHg 89%
    13:00 -17°C° 0 mm 2 mps 754 mmHg 89%
    14:00 -17°C° 0 mm 2 mps 754 mmHg 90%
    15:00 -17°C° 0 mm 2 mps 754 mmHg 91%
    16:00 -18°C° 0 mm 2 mps 754 mmHg 93%
    17:00 -19°C° 0 mm 2 mps 754 mmHg 94%
    18:00 -19°C° 0 mm 2 mps 754 mmHg 95%
    19:00 -19°C° 0 mm 2 mps 753 mmHg 96%
    20:00 -19°C° 0 mm 2 mps 753 mmHg 96%
    21:00 -19°C° 0 mm 2 mps 753 mmHg 96%
    22:00 -18°C° 0 mm 2 mps 753 mmHg 96%
    23:00 -18°C° 0 mm 2 mps 753 mmHg 96%

    Tomorrow, 24 January, Thursday

    Time Temperature Precipitation Wind Pressure Humidity
    00:00 -18°C° 0 mm 2 mps 753 mmHg 96%
    01:00 -18°C° 0 mm 2 mps 753 mmHg 96%
    02:00 -18°C° 0 mm 2 mps 753 mmHg 96%
    03:00 -19°C° 0 mm 2 mps 753 mmHg 96%
    04:00 -19°C° 0 mm 2 mps 752 mmHg 97%
    05:00 -19°C° 0 mm 2 mps 752 mmHg 97%
    06:00 -20°C° 0 mm 2 mps 752 mmHg 97%
    07:00 -20°C° 0 mm 2 mps 752 mmHg 97%
    08:00 -21°C° 0 mm 2 mps 752 mmHg 97%
    09:00 -19°C° 0 mm 2 mps 752 mmHg 96%
    10:00 -18°C° 0 mm 2 mps 752 mmHg 94%
    11:00 -16°C° 0 mm 2 mps 752 mmHg 92%
    12:00 -16°C° 0 mm 2 mps 751 mmHg 92%
    13:00 -15°C° 0 mm 2 mps 751 mmHg 93%
    14:00 -14°C° 0 mm 2 mps 751 mmHg 93%
    15:00 -15°C° 0 mm 2 mps 751 mmHg 94%
    16:00 -15°C° 0 mm 2 mps 751 mmHg 95%
    17:00 -16°C° 0 mm 2 mps 752 mmHg 95%
    18:00 -16°C° 0 mm 2 mps 752 mmHg 96%
    19:00 -14°C° 0 mm 1 mps 752 mmHg 96%
    20:00 -14°C° 0 mm 1 mps 752 mmHg 97%
    21:00 -14°C° 0 mm 1 mps 753 mmHg 97%
    22:00 -14°C° 0 mm 1 mps 753 mmHg 97%
    23:00 -14°C° 0 mm 1 mps 754 mmHg 98%

    Day after tomorrow, 25 January, Friday

    Time Temperature Precipitation Wind Pressure Humidity
    00:00 -16°C° 0 mm 1 mps 754 mmHg 98%
    01:00 -19°C° 0 mm 2 mps 755 mmHg 97%
    02:00 -20°C° 0 mm 2 mps 755 mmHg 97%
    03:00 -19°C° 0 mm 1 mps 756 mmHg 97%
    04:00 -20°C° 0 mm 1 mps 756 mmHg 97%
    05:00 -21°C° 0 mm 1 mps 756 mmHg 97%
    06:00 -21°C° 0 mm 1 mps 757 mmHg 97%
    07:00 -22°C° 0 mm 1 mps 757 mmHg 97%
    08:00 -22°C° 0 mm 1 mps 758 mmHg 97%
    09:00 -20°C° 0 mm 1 mps 758 mmHg 95%
    10:00 -19°C° 0 mm 1 mps 759 mmHg 93%
    11:00 -17°C° 0 mm 1 mps 759 mmHg 91%
    12:00 -16°C° 0 mm 1 mps 759 mmHg 91%
    13:00 -16°C° 0 mm 1 mps 759 mmHg 92%
    14:00 -15°C° 0 mm 1 mps 759 mmHg 93%
    15:00 -17°C° 0 mm 1 mps 760 mmHg 94%
    16:00 -18°C° 0 mm 1 mps 760 mmHg 95%
    17:00 -20°C° 0 mm 1 mps 760 mmHg 96%
    18:00 -20°C° 0 mm 1 mps 760 mmHg 96%
    19:00 -20°C° 0 mm 1 mps 760 mmHg 97%
    20:00 -20°C° 0 mm 1 mps 760 mmHg 97%
    21:00 -21°C° 0 mm 1 mps 760 mmHg 97%
    22:00 -21°C° 0 mm 1 mps 760 mmHg 97%
    23:00 -21°C° 0 mm 1 mps 760 mmHg 97%

    26 January, Saturday

    Time Temperature Precipitation Wind Pressure Humidity
    00:00 -21°C° 0 mm 1 mps 760 mmHg 97%
    01:00 -21°C° 0 mm 1 mps 760 mmHg 97%
    02:00 -24°C° 0 mm 2 mps 760 mmHg 97%
    03:00 -24°C° 0 mm 2 mps 760 mmHg 97%
    04:00 -24°C° 0 mm 2 mps 760 mmHg 98%
    05:00 -22°C° 0 mm 1 mps 760 mmHg 98%
    06:00 -25°C° 0 mm 2 mps 760 mmHg 98%
    07:00 -25°C° 0 mm 2 mps 760 mmHg 98%
    08:00 -25°C° 0 mm 2 mps 760 mmHg 98%
    09:00 -23°C° 0 mm 2 mps 759 mmHg 96%
    10:00 -21°C° 0 mm 2 mps 759 mmHg 95%
    11:00 -21°C° 0 mm 3 mps 759 mmHg 93%
    12:00 -19°C° 0 mm 3 mps 759 mmHg 93%
    13:00 -19°C° 0 mm 3 mps 758 mmHg 93%
    14:00 -18°C° 0 mm 3 mps 757 mmHg 92%
    15:00 -19°C° 0 mm 3 mps 757 mmHg 92%
    16:00 -20°C° 0 mm 4 mps 757 mmHg 91%
    17:00 -20°C° 0 mm 4 mps 757 mmHg 91%
    18:00 -20°C° 0 mm 4 mps 756 mmHg 90%
    19:00 -20°C° 0 mm 4 mps 756 mmHg 89%
    20:00 -19°C° 0 mm 4 mps 756 mmHg 88%
    21:00 -19°C° 0.1 mm 4 mps 755 mmHg 89%
    22:00 -20°C° 0.1 mm 5 mps 755 mmHg 89%
    23:00 -20°C° 0.1 mm 5 mps 755 mmHg 90%

    27 January, Sunday

    Time Temperature Precipitation Wind Pressure Humidity
    00:00 -20°C° 0.4 mm 5 mps 754 mmHg 91%
    01:00 -19°C° 0.4 mm 5 mps 754 mmHg 92%
    02:00 -19°C° 0.4 mm 5 mps 754 mmHg 92%
    03:00 -19°C° 0.4 mm 5 mps 753 mmHg 92%
    04:00 -19°C° 0.4 mm 5 mps 753 mmHg 92%
    05:00 -19°C° 0.4 mm 5 mps 753 mmHg 92%
    06:00 -19°C° 0.3 mm 5 mps 753 mmHg 92%
    07:00 -19°C° 0.3 mm 5 mps 753 mmHg 91%
    08:00 -19°C° 0.3 mm 5 mps 753 mmHg 91%
    09:00 -18°C° 0.2 mm 4 mps 753 mmHg 91%
    10:00 -18°C° 0.2 mm 4 mps 752 mmHg 90%
    11:00 -18°C° 0.2 mm 4 mps 752 mmHg 90%
    12:00 -18°C° 0.2 mm 4 mps 752 mmHg 90%
    13:00 -18°C° 0.2 mm 4 mps 752 mmHg 91%
    14:00 -17°C° 0.2 mm 4 mps 752 mmHg 91%
    15:00 -18°C° 0.2 mm 4 mps 752 mmHg 91%
    16:00 -18°C° 0.2 mm 4 mps 752 mmHg 92%
    17:00 -18°C° 0.2 mm 4 mps 752 mmHg 92%
    18:00 -17°C° 0.2 mm 3 mps 752 mmHg 92%
    19:00 -17°C° 0.2 mm 3 mps 752 mmHg 92%
    20:00 -17°C° 0.2 mm 3 mps 752 mmHg 92%
    21:00 -17°C° 0.1 mm 3 mps 752 mmHg 93%
    22:00 -17°C° 0.1 mm 3 mps 752 mmHg 93%
    23:00 -17°C° 0.1 mm 3 mps 752 mmHg 93%

    28 January, Monday

    Time Temperature Precipitation Wind Pressure Humidity
    00:00 -17°C° 0.2 mm 3 mps 752 mmHg 93%
    01:00 -18°C° 0.2 mm 3 mps 753 mmHg 93%
    02:00 -18°C° 0.2 mm 3 mps 753 mmHg 93%
    03:00 -18°C° 0.1 mm 3 mps 753 mmHg 93%
    04:00 -18°C° 0.1 mm 3 mps 753 mmHg 93%
    05:00 -18°C° 0.1 mm 3 mps 753 mmHg 93%
    06:00 -19°C° 0.1 mm 3 mps 753 mmHg 93%
    07:00 -21°C° 0.1 mm 3 mps 753 mmHg 93%
    08:00 -21°C° 0.1 mm 3 mps 754 mmHg 94%
    09:00 -21°C° 0 mm 3 mps 754 mmHg 93%
    10:00 -21°C° 0 mm 3 mps 754 mmHg 92%
    11:00 -21°C° 0 mm 3 mps 755 mmHg 91%
    12:00 -22°C° 0 mm 3 mps 755 mmHg 91%
    13:00 -22°C° 0 mm 3 mps 755 mmHg 90%
    14:00 -22°C° 0 mm 3 mps 755 mmHg 90%
    15:00 -23°C° 0 mm 3 mps 756 mmHg 92%
    16:00 -24°C° 0 mm 2 mps 756 mmHg 94%
    17:00 -25°C° 0 mm 2 mps 756 mmHg 96%
    18:00 -26°C° 0 mm 2 mps 757 mmHg 96%
    19:00 -27°C° 0 mm 2 mps 757 mmHg 97%
    20:00 -28°C° 0 mm 2 mps 757 mmHg 97%
    21:00 -28°C° 0 mm 2 mps 758 mmHg 97%
    22:00 -29°C° 0 mm 2 mps 758 mmHg 98%
    23:00 -29°C° 0 mm 2 mps 758 mmHg 98%
    Show more